CAPE
861 768 740 821 673 610 597 562 570 604 684 542 594 436 329 839 778 645 490 305 235 76 184 116 190 326 454 583 630 560 619 637 606 849 889 942 1052 1321 1220 1107 1238 965 743 618 550 584 665 553 388 576 453 270 202 161 149 105 91 98 86 55 16 8 1 8 7 2 0 0 0 0 0 0 0 0 0 0 0 0 0 0 0 0 1 0 0
772 769 799 898 640 612 601 471 607 603 696 1065 963 807 562 600 595 714 657 612 270 180 141 141 11 32 240 425 412 324 614 781 709 743 844 926 1035 1167 1335 1191 1277 1082 908 633 570 534 467 410 313 258 508 353 259 264 204 194 180 130 93 64 55 36 11 0 10 11 5 4 2 1 1 0 0 0 0 0 0 1 1 0 1 0 0 1 1
1006 972 924 864 846 911 781 573 805 688 697 1180 1143 1121 801 573 737 782 703 561 342 192 230 54 22 129 338 404 388 492 481 672 746 851 863 908 833 874 1236 1369 1282 1035 989 866 707 518 552 456 245 243 618 641 566 407 330 358 298 217 169 112 81 60 36 9 0 0 0 0 0 0 0 0 0 0 0 0 0 0 0 0 1 1 0 0 0
985 1038 1081 963 1012 1059 1082 979 856 1152 1126 984 1061 1159 1005 864 1093 988 950 531 395 324 160 159 44 64 171 398 573 504 458 669 742 741 823 795 728 753 723 988 1212 1084 881 859 952 698 397 434 360 211 352 868 808 563 454 349 355 385 277 170 123 84 75 38 14 0 0 0 0 0 0 0 0 0 0 0 0 0 0 0 0 1 1 1 1
1054 1004 1225 1109 1000 988 1065 1068 1038 1116 1163 992 1187 1126 1299 1414 1232 990 914 692 476 206 216 115 53 123 247 327 427 719 746 644 853 832 748 670 672 642 657 626 662 927 1090 1433 1116 1123 549 365 348 312 262 619 622 640 464 186 162 435 447 280 189 161 108 75 42 9 0 0 0 0 0 0 0 0 0 0 0 0 0 0 0 0 0 0 0
942 923 848 868 946 910 1003 960 1148 1236 1071 990 1131 1180 1252 1238 1126 975 940 589 318 184 187 167 172 186 319 444 371 499 466 691 618 802 756 607 644 580 581 466 499 697 1127 1194 870 890 792 624 432 337 323 258 243 456 289 165 128 484 574 436 250 250 220 156 78 40 4 0 0 0 0 0 0 0 0 0 0 0 0 0 0 0 0 0 0
945 925 846 760 829 692 833 939 1161 1149 1038 875 1176 980 1192 1302 1166 1012 743 454 366 284 148 136 198 345 350 360 515 610 434 419 778 842 887 873 740 584 537 415 436 578 645 692 1107 831 827 706 508 430 349 278 293 304 352 276 288 234 742 594 470 394 350 220 136 97 58 7 0 1 0 0 0 0 0 0 0 0 0 0 0 0 0 0 0
1086 815 746 569 540 595 659 1162 1207 1136 1085 836 1079 1043 1082 1204 1068 864 518 554 467 234 145 102 207 497 419 409 393 341 221 233 664 774 875 859 699 534 455 396 458 590 784 527 659 864 1024 1186 1009 886 532 425 418 374 443 537 501 415 460 933 754 569 508 371 269 195 76 62 16 0 6 0 0 0 0 0 0 0 0 0 0 0 0 0 0
901 886 735 588 664 610 795 918 1186 1099 1048 908 1006 1034 967 894 737 660 340 344 445 465 386 220 220 351 506 353 418 411 373 379 424 636 747 838 730 550 444 386 688 1667 636 401 631 901 1394 1547 1448 1259 1289 1296 1112 988 1014 1157 1209 1018 963 674 1061 782 604 483 380 287 216 139 264 57 10 0 0 0 0 0 0 0 0 0 1 0 0 0 0
898 849 818 754 716 716 709 797 1083 964 937 913 1045 935 1014 995 731 654 591 372 316 373 430 449 371 445 630 426 276 300 355 528 817 1289 750 842 852 864 751 644 757 779 832 662 669 801 1008 1253 1457 1396 1173 933 1092 1193 836 962 842 798 877 821 831 798 783 778 700 542 460 381 286 282 202 43 0 0 0 0 0 0 0 0 0 1 0 0 1
819 852 760 751 772 747 732 804 1045 978 1064 1057 968 1004 895 885 842 538 468 494 457 352 302 363 372 501 656 539 397 353 428 617 736 861 1057 1043 1069 1062 932 842 778 838 864 715 825 724 652 842 763 738 730 1193 1273 996 880 976 916 938 909 848 984 795 826 803 769 718 650 573 483 348 309 362 303 28 2 1 0 0 0 0 0 0 0 0 0
1038 893 793 741 718 748 772 797 892 890 1016 994 869 854 733 761 808 660 767 600 267 212 204 203 126 310 537 568 536 601 637 661 834 805 724 884 795 746 881 876 921 960 994 1012 995 840 719 786 804 820 804 1058 1231 969 740 690 796 959 842 1064 1014 962 960 932 830 841 784 706 697 644 484 418 406 375 220 231 24 0 1 0 0 0 0 0 0
1139 1037 933 1058 613 650 713 757 829 812 853 712 867 777 711 876 957 851 714 464 432 389 375 124 71 314 330 344 512 588 671 659 714 702 572 565 493 572 674 743 770 727 836 850 901 844 695 740 704 770 710 755 642 359 298 262 206 242 269 575 864 891 837 789 872 864 900 847 845 709 824 570 533 482 420 321 282 125 19 3 0 0 0 0 0
1194 1143 1096 944 701 767 766 778 935 862 768 812 672 624 805 1050 1032 990 844 718 696 499 392 53 77 296 314 333 336 416 357 517 385 499 613 631 640 561 705 738 714 669 636 712 756 705 752 828 878 813 750 665 455 104 0 0 0 0 0 71 460 828 1015 924 869 930 893 815 797 716 671 604 592 600 539 453 438 351 147 45 0 0 0 0 0
1026 970 1044 859 716 731 766 664 899 916 848 714 836 733 948 1122 1032 1002 1079 824 709 641 496 692 23 347 124 155 243 245 335 189 260 344 512 557 625 674 792 822 1005 655 600 758 775 594 708 779 748 758 730 569 290 0 0 0 0 0 0 0 65 470 619 618 682 731 587 758 760 564 563 663 779 626 644 586 499 470 402 305 173 4 0 0 0
1011 982 945 904 979 881 855 781 731 876 752 777 954 1066 1102 1146 1110 1139 1002 632 564 592 638 488 93 307 250 222 112 138 258 154 193 255 234 408 283 278 561 808 725 970 566 604 531 506 553 812 776 672 595 518 80 0 0 0 0 0 0 0 0 44 270 299 292 333 573 648 628 606 642 482 434 492 597 350 510 544 417 379 314 260 1 0 0
1032 906 1008 1121 1038 1044 862 812 729 738 1093 944 935 1049 972 1088 1127 1158 1004 747 647 498 597 560 240 533 278 16 27 228 262 162 235 118 101 221 420 319 546 763 1019 810 746 552 458 256 286 592 736 529 198 130 0 0 0 0 0 0 0 0 0 0 42 530 594 487 366 367 456 522 428 473 534 506 396 412 363 477 538 516 507 342 312 149 15
938 961 1052 959 905 880 916 1056 948 1003 1190 1165 1095 1120 954 1083 1194 1175 876 664 603 560 562 554 561 636 1003 1413 600 101 335 164 43 0 73 152 185 494 423 435 389 553 283 183 175 239 322 212 20 60 86 56 0 0 0 0 0 0 0 0 0 0 0 247 497 431 640 652 826 297 305 451 342 186 218 321 454 374 339 453 520 576 537 333 238
218 524 756 717 626 775 905 930 937 1265 1121 1276 1093 1144 1134 1182 1171 1175 866 619 594 415 492 628 518 859 906 896 750 452 359 297 6 0 0 0 0 40 43 223 309 190 97 62 88 10 189 0 0 0 0 0 0 0 0 0 0 0 0 0 0 0 0 0 0 132 599 564 552 427 432 215 112 24 24 52 127 299 414 412 400 529 545 509 409
124 161 262 283 539 804 857 926 866 968 1064 1241 1219 1143 1054 1023 1116 933 897 812 705 511 642 706 788 779 831 833 380 373 361 30 39 0 0 0 0 0 0 0 0 0 0 0 0 0 0 0 0 0 0 0 0 0 0 0 0 0 0 0 0 0 0 0 0 0 0 12 11 6 7 2 0 0 0 0 0 11 138 244 406 500 385 401 391
0 114 87 145 197 156 296 141 328 831 905 838 845 947 794 728 757 833 930 617 675 572 501 684 823 784 734 729 557 509 565 542 156 0 0 0 0 0 0 0 0 0 0 0 0 0 0 0 0 0 0 0 0 0 0 0 0 0 0 0 0 0 0 0 0 0 0 0 0 0 0 0 0 0 0 0 0 0 0 0 37 80 215 188 184
10 42 3 98 361 181 112 140 406 650 628 836 936 759 639 539 816 847 934 811 730 487 395 672 741 836 747 618 546 460 444 158 34 0 0 0 0 0 0 1 1 1 0 0 0 0 0 0 0 0 0 0 0 0 0 0 0 0 0 0 0 0 0 0 0 0 0 0 0 0 0 0 0 0 0 0 0 0 0 0 0 0 2 58 203
58 26 12 78 194 175 51 50 33 204 238 730 530 545 631 704 881 666 883 727 580 618 471 374 413 713 767 586 532 433 375 21 35 6 0 0 0 2 0 1 3 0 0 0 0 0 0 0 0 0 0 0 0 0 0 0 0 0 0 0 0 0 0 0 0 0 0 0 0 0 0 0 0 0 0 0 0 0 0 0 0 0 0 0 0
2 0 0 87 40 23 24 0 2 8 18 92 75 645 804 1081 1031 956 854 727 748 641 490 470 395 308 474 507 586 529 0 26 33 22 0 2 2 2 6 5 0 0 0 0 0 0 0 0 0 0 0 0 0 0 0 0 0 0 0 0 0 0 0 0 0 0 0 0 0 0 0 0 0 0 0 0 0 0 0 0 0 0 0 0 0
24 1 0 10 68 41 29 0 0 0 0 0 300 449 592 805 801 762 815 788 715 585 294 372 178 94 44 39 136 500 406 404 414 96 31 0 1 5 4 0 0 0 0 0 0 0 0 0 0 0 0 0 0 0 0 0 0 0 0 0 0 0 0 0 0 0 0 0 0 0 0 0 0 0 0 0 0 0 0 0 0 0 0 0 0
0 0 1 0 173 121 16 0 0 0 0 0 0 320 480 585 654 703 660 664 766 722 593 514 344 87 55 74 103 78 306 393 422 222 156 10 0 0 0 0 0 0 0 0 0 0 0 0 0 0 0 0 0 0 0 0 0 0 0 0 0 0 0 0 0 0 0 0 0 0 0 0 0 0 0 0 0 0 0 0 0 0 0 0 0
0 3 0 11 35 0 0 0 0 0 0 0 0 0 298 500 460 466 530 645 741 717 638 612 537 308 61 22 72 10 373 339 292 208 171 8 0 0 0 0 0 0 0 0 0 0 0 0 0 0 0 0 0 0 0 0 0 0 0 0 0 0 0 0 0 0 0 0 0 0 0 0 0 0 0 0 0 0 0 0 0 0 0 0 0
0 0 8 0 0 0 0 0 0 0 0 0 0 0 0 152 326 418 378 345 192 168 151 211 523 414 21 1 27 40 8 189 194 71 63 0 0 0 0 0 0 0 0 0 0 0 0 0 0 0 0 0 0 0 0 0 0 0 0 0 0 0 0 0 0 0 0 0 0 0 0 0 0 0 0 0 0 0 0 0 0 0 0 0 0
0 0 0 0 0 0 0 0 0 0 0 0 0 0 0 0 0 0 0 0 0 0 0 0 0 0 0 0 0 0 0 0 0 26 40 49 79 2 0 0 0 0 0 0 0 0 0 0 0 0 0 0 0 0 0 0 0 0 0 0 0 0 0 0 0 0 0 0 0 0 0 0 0 0 0 0 0 0 0 0 0 0 0 0 0
0 0 0 0 0 0 0 0 0 0 0 0 0 0 0 0 0 0 0 0 0 0 0 0 0 0 0 0 0 0 0 0 0 0 0 0 0 0 0 0 0 0 0 0 0 0 0 0 0 0 0 0 0 0 0 0 0 0 0 0 0 0 0 0 0 0 0 0 0 0 0 0 0 0 0 0 0 0 0 0 0 0 0 0 0
0 0 0 0 0 0 0 0 0 0 0 0 0 0 0 0 0 0 0 0 0 0 0 0 0 0 0 0 0 0 0 0 0 0 0 0 0 0 0 0 0 0 0 0 0 0 0 0 0 0 0 0 0 0 0 0 0 0 0 0 0 0 0 0 0 0 0 0 0 0 0 0 0 0 0 0 0 0 0 0 0 0 0 0 0
0 0 0 0 0 0 0 0 0 0 0 0 0 0 0 0 0 0 0 0 0 0 0 0 0 0 0 0 0 0 0 0 0 0 0 0 0 0 0 0 0 0 0 0 0 0 0 0 0 0 0 0 0 0 0 0 0 0 0 0 0 0 0 0 0 0 0 0 0 0 0 0 0 0 0 0 0 0 0 0 0 0 0 0 0
0 0 0 0 0 0 0 0 0 0 0 0 0 0 0 0 0 0 0 0 0 0 0 0 0 0 0 0 0 0 0 0 0 0 0 0 0 0 0 0 0 0 0 0 0 0 0 0 0 0 0 0 0 0 0 0 0 0 0 0 0 0 0 0 0 0 0 0 0 0 0 0 0 0 0 0 0 0 0 0 0 0 0 0 0
0 0 0 0 0 0 0 0 0 0 0 0 0 0 0 0 0 0 0 0 0 0 0 0 0 0 0 0 0 0 0 0 0 0 0 0 0 0 0 0 0 0 0 0 0 0 0 0 0 0 0 0 0 0 0 0 0 0 0 0 0 0 0 0 0 0 0 0 0 0 0 0 0 0 0 0 0 0 0 0 0 0 0 0 0
0 0 0 0 0 0 0 0 0 0 0 0 0 0 0 0 0 0 0 0 0 0 0 0 0 0 0 0 0 0 0 0 0 0 0 0 0 0 0 0 0 0 0 0 0 0 0 0 0 0 0 0 0 0 0 0 0 0 0 0 0 0 0 0 0 0 0 0 0 0 0 0 0 0 0 0 0 0 0 0 0 0 0 0 0
0 0 0 0 0 0 0 0 0 0 0 0 0 0 0 0 0 0 0 0 0 0 0 0 0 0 0 0 0 0 0 0 0 0 0 0 0 0 0 0 0 0 0 0 0 0 0 0 0 0 0 0 0 0 0 0 0 0 0 0 0 0 0 0 0 0 0 0 0 0 0 0 0 0 0 0 0 0 0 0 0 0 0 0 0
0 0 0 0 0 0 0 0 0 0 0 0 0 0 0 0 0 0 0 0 0 0 0 0 0 0 0 0 0 0 0 0 0 0 0 0 0 0 0 0 0 0 0 0 0 0 0 0 0 0 0 0 0 0 0 0 0 0 0 0 0 0 0 0 0 0 0 0 0 0 0 0 0 0 0 0 0 0 0 0 0 0 0 0 0
0 0 0 0 0 0 0 0 0 0 0 0 0 0 0 0 0 0 0 0 0 0 0 0 0 0 0 0 0 0 0 0 0 0 0 0 0 0 0 0 0 0 0 0 0 0 0 0 0 0 0 0 0 0 0 0 0 0 0 0 0 0 0 0 0 0 0 0 0 0 0 0 0 0 0 0 0 0 0 0 0 0 0 0 0
8 0 0 0 0 0 0 0 0 0 0 0 0 0 0 0 0 0 0 0 0 0 0 0 0 0 0 0 0 0 0 0 0 0 0 0 0 0 0 0 0 0 0 0 0 0 0 0 0 0 0 0 0 0 0 0 0 0 0 0 0 0 0 0 0 0 0 0 0 0 0 0 0 0 0 0 0 0 0 0 0 0 0 0 0
21 0 0 0 0 0 0 0 0 0 0 0 0 0 0 0 0 0 0 0 0 0 0 0 0 0 0 0 0 0 0 0 0 0 0 0 0 0 0 0 0 0 0 0 0 0 0 0 0 0 0 0 0 0 0 0 0 0 0 0 0 0 0 0 0 0 0 0 0 0 0 0 0 0 0 0 0 0 0 0 0 0 0 0 0
0 0 0 0 0 0 0 0 0 0 0 0 0 0 0 0 0 0 0 0 0 0 0 0 0 0 0 0 0 0 0 18 0 0 0 0 0 0 0 0 0 0 0 0 0 0 0 0 0 0 0 0 0 0 0 0 0 0 0 0 0 0 0 0 0 0 0 0 0 0 0 0 0 0 0 0 0 0 0 0 0 0 0 0 0
0 0 0 0 0 0 0 0 0 0 0 0 0 0 0 0 0 0 0 0 0 0 0 0 0 0 0 0 6 183 27 0 0 0 0 0 0 0 0 0 0 0 0 0 0 0 0 0 0 0 0 0 0 0 0 0 0 0 0 0 0 0 0 0 0 0 0 0 0 0 0 0 0 0 0 0 0 0 0 0 0 0 0 0 0
148 147 419 122 53 8 0 0 0 0 0 0 0 0 0 0 0 0 0 0 0 0 0 0 0 0 0 0 0 0 0 0 0 0 0 0 0 0 0 0 0 0 0 0 0 0 0 0 0 0 0 0 0 0 0 0 0 0 0 0 0 0 0 0 0 0 0 0 0 0 0 0 0 0 0 0 0 0 0 0 0 0 0 0 0
420 86 639 567 264 9 0 0 0 0 0 0 0 0 0 0 0 0 0 0 0 0 0 0 0 0 0 0 0 0 0 0 0 0 0 0 0 0 0 0 0 0 0 0 0 0 0 0 0 0 0 0 0 0 0 0 0 0 0 0 0 0 0 0 0 0 0 0 0 0 0 0 0 0 0 0 0 0 0 0 0 0 0 0 0
518 524 592 798 669 459 358 0 0 0 0 0 0 0 0 0 0 0 61 15 6 3 0 0 167 0 0 0 0 0 0 0 0 0 0 0 0 0 0 0 0 0 0 0 0 0 0 0 0 0 0 0 0 0 0 0 0 0 0 0 0 0 0 0 0 0 0 0 0 0 0 0 0 0 0 0 0 0 0 0 0 0 0 0 0
592 614 649 717 658 562 462 249 0 0 0 0 0 0 0 0 0 0 396 649 498 120 0 0 140 308 0 0 0 0 0 0 0 0 0 0 1 1 0 0 0 0 0 0 0 0 0 0 0 0 0 0 0 0 0 0 0 0 0 0 0 0 0 0 0 0 0 0 0 0 0 0 0 0 0 0 0 0 0 0 0 0 0 0 0
790 722 711 760 756 724 622 528 472 416 70 0 0 0 0 0 0 0 301 469 672 677 596 518 425 276 0 235 372 427 408 325 287 16 0 0 0 1 3 1 0 0 1 0 0 0 0 6 0 0 0 0 0 0 0 0 0 0 0 0 0 0 0 0 0 0 0 0 0 0 0 0 0 0 0 0 0 0 0 0 0 0 0 0 0
801 776 850 917 908 833 760 681 670 608 600 545 468 314 258 0 0 0 0 221 472 573 559 675 605 388 113 118 289 324 369 342 60 0 0 0 0 11 1 25 0 0 0 0 0 0 0 0 0 0 0 0 0 0 0 0 0 0 0 0 0 0 0 0 0 0 0 0 0 0 0 0 0 0 0 0 0 0 0 0 0 0 0 0 0
788 788 780 910 981 954 871 790 730 694 666 580 469 382 259 0 0 0 0 0 0 323 481 513 402 390 395 115 0 216 0 0 0 0 0 0 0 61 36 0 0 2 0 0 0 158 104 94 0 0 0 0 0 0 0 0 0 0 0 0 0 0 0 0 0 0 0 0 0 0 0 0 0 0 0 0 0 0 0 0 0 0 0 0 0
8 449 875 887 938 921 859 805 723 679 664 634 574 452 362 390 346 134 0 0 0 0 279 430 426 391 266 4 202 0 0 0 0 0 98 0 26 48 63 114 2 2 155 0 29 7 0 0 0 0 0 0 0 0 0 0 0 0 0 0 0 0 0 0 0 0 0 0 0 0 0 0 0 0 0 0 0 0 0 0 0 0 0 0 0
0 0 0 372 809 892 854 847 805 713 650 653 628 606 580 552 535 523 497 448 160 144 0 118 0 0 0 237 328 53 3 15 92 276 188 151 154 113 84 0 11 0 0 0 0 0 0 0 0 0 0 0 0 0 0 0 0 0 0 0 0 0 0 0 0 0 0 0 0 0 0 0 0 0 0 0 0 0 0 0 0 0 0 0 0
Wind_Speed
9 9 9 9 9 8 9 9 10 11 13 11 9 7 7 9 11 10 10 12 14 nan 20 20 18 24 22 19 22 20 22 23 18 19 20 22 23 24 26 25 24 25 24 25 25 24 24 23 22 22 22 21 19 19 19 19 nan nan nan nan nan nan nan nan nan nan nan nan nan nan nan nan nan nan nan nan nan nan nan nan nan nan nan nan nan
8 8 9 8 7 6 7 7 9 9 11 8 7 8 7 8 10 12 12 12 15 17 20 24 nan nan 21 22 25 20 15 14 16 19 22 23 23 22 26 26 25 23 23 25 24 23 23 23 22 21 21 20 20 19 19 19 19 20 nan nan nan nan nan nan nan nan nan nan nan nan nan nan nan nan nan nan nan nan nan nan nan nan nan nan nan
7 7 7 7 6 6 5 6 6 7 6 6 5 6 7 7 9 9 11 13 15 15 20 nan nan 21 20 21 18 15 13 14 18 20 18 19 21 21 24 28 26 26 24 23 22 23 23 22 21 20 20 19 21 20 19 19 19 20 20 20 nan nan nan nan nan nan nan nan nan nan nan nan nan nan nan nan nan nan nan nan nan nan nan nan nan
6 6 7 7 6 5 5 5 5 5 6 6 4 6 6 5 6 6 10 12 14 16 20 22 nan nan 16 17 16 17 17 19 16 17 16 17 18 19 20 20 23 23 24 24 21 21 22 22 21 20 19 20 20 19 19 19 18 18 19 19 19 nan nan nan nan nan nan nan nan nan nan nan nan nan nan nan nan nan nan nan nan nan nan nan nan
4 7 7 6 6 4 3 3 5 4 6 6 6 6 6 5 4 7 10 12 15 16 18 18 nan 17 15 15 15 15 16 17 15 15 14 14 14 14 15 14 15 20 22 23 23 21 21 21 21 19 21 20 19 18 16 19 17 17 18 19 19 19 20 nan nan nan nan nan nan nan nan nan nan nan nan nan nan nan nan nan nan nan nan nan nan
5 8 7 6 5 2 2 2 3 3 4 5 7 7 7 6 6 8 10 11 13 12 15 17 16 16 15 12 12 12 13 13 12 9 11 11 11 12 12 12 13 16 17 20 21 22 21 21 20 19 18 20 19 18 18 19 17 19 17 18 18 19 21 22 nan nan nan nan nan nan nan nan nan nan nan nan nan nan nan nan nan nan nan nan nan
6 9 6 6 6 4 2 1 3 3 4 5 7 6 7 7 7 8 9 9 9 10 13 13 15 18 15 13 12 13 12 12 8 7 9 8 8 9 11 14 15 15 15 15 17 18 19 18 18 18 18 19 19 17 17 19 17 16 17 16 17 17 19 20 22 nan nan nan nan nan nan nan nan nan nan nan nan nan nan nan nan nan nan nan nan
7 8 7 6 6 6 3 1 1 4 4 3 5 7 6 7 7 7 8 6 8 8 8 11 12 15 14 14 11 10 10 11 7 7 6 7 8 10 12 13 14 14 15 15 15 15 17 17 17 16 17 18 16 16 18 18 18 17 15 16 17 17 18 18 19 20 nan nan nan nan nan nan nan nan nan nan nan nan nan nan nan nan nan nan nan
5 8 8 6 6 6 5 3 2 4 4 3 5 6 6 6 6 7 8 8 6 4 4 8 11 13 12 12 8 4 9 10 6 7 7 7 7 10 12 11 11 14 15 14 14 15 16 17 18 18 19 19 19 18 17 18 18 16 17 18 16 17 17 19 19 19 19 20 21 nan nan nan nan nan nan nan nan nan nan nan nan nan nan nan nan
6 8 10 8 8 7 5 4 3 5 4 3 4 5 6 8 8 6 7 7 5 2 2 8 11 12 10 7 9 9 9 11 9 7 8 7 7 10 12 10 9 10 13 14 14 14 14 15 16 17 17 18 18 17 15 15 15 15 15 15 16 15 16 17 19 18 18 18 19 20 21 nan nan nan nan nan nan nan nan nan nan nan nan nan nan
8 10 10 9 9 8 6 4 4 5 5 4 4 4 5 6 9 7 6 6 4 3 5 9 12 12 9 7 9 12 11 11 14 9 7 5 7 10 10 10 9 9 11 12 12 11 11 11 12 13 14 17 17 16 16 15 13 13 13 13 15 13 13 15 15 15 17 18 18 18 21 23 23 nan nan nan nan nan nan nan nan nan nan nan nan
8 10 10 9 9 9 8 6 5 4 5 5 3 4 4 5 8 8 8 6 5 4 7 11 12 11 9 6 9 11 9 9 11 12 4 1 7 9 8 8 9 10 9 10 11 11 10 9 10 12 13 15 18 20 20 20 20 19 18 17 15 12 12 12 12 13 15 16 16 18 21 21 21 21 21 22 nan nan nan nan nan nan nan nan nan
10 11 10 10 10 10 8 6 5 4 4 4 4 4 4 4 6 7 9 8 5 4 5 9 nan 9 8 8 10 10 9 14 11 8 7 7 8 5 4 8 8 9 7 8 9 10 9 9 9 11 12 13 15 20 20 20 19 18 17 15 15 13 15 14 11 11 12 13 15 17 20 19 21 21 20 20 20 20 nan nan nan nan nan nan nan
11 11 10 10 10 10 9 7 5 5 5 5 5 5 4 4 6 7 7 8 7 6 6 nan nan 8 9 10 11 11 14 13 11 11 7 6 7 8 7 7 7 7 7 8 7 7 7 8 9 10 11 12 12 12 nan nan nan nan nan nan 14 14 15 14 14 16 14 13 15 18 19 18 19 19 19 19 19 19 20 nan nan nan nan nan nan
11 11 10 8 7 8 8 6 5 6 7 5 6 6 5 5 7 8 8 6 7 5 4 7 nan 9 8 13 12 12 12 13 13 9 5 6 8 6 6 8 8 7 8 9 6 5 6 8 9 9 11 11 12 nan nan nan nan nan nan nan nan 15 14 15 14 14 15 17 16 15 14 15 17 17 17 17 18 19 20 21 24 nan nan nan nan
11 11 10 9 7 7 7 7 6 5 7 6 6 6 6 6 6 7 8 10 8 6 3 5 nan 14 10 9 10 12 15 13 12 6 3 4 8 5 5 7 8 7 7 4 5 6 7 7 9 11 11 12 nan nan nan nan nan nan nan nan nan nan 17 18 16 15 16 16 17 17 16 17 19 22 20 16 14 16 17 20 21 24 nan nan nan
11 11 10 10 8 7 7 7 7 6 6 6 6 7 7 6 8 9 8 10 9 8 5 6 9 10 13 nan nan 10 10 15 15 8 5 6 7 8 6 6 8 8 7 7 7 7 7 8 11 14 16 16 nan nan nan nan nan nan nan nan nan nan nan 21 21 20 21 22 22 22 23 24 23 22 21 21 20 18 18 15 17 19 23 26 nan
12 9 9 9 9 8 7 8 8 7 7 7 8 9 7 6 7 11 11 9 12 12 8 6 8 8 9 11 11 11 15 15 nan nan nan 7 8 9 9 8 9 9 10 10 9 8 8 13 nan nan nan nan nan nan nan nan nan nan nan nan nan nan nan 22 26 27 27 26 27 27 28 29 29 30 30 29 29 23 15 11 14 13 17 24 24
9 8 8 8 8 8 8 8 8 8 8 9 9 10 11 9 9 12 12 13 13 12 13 9 9 9 9 12 11 12 15 15 nan nan nan nan nan nan nan 9 11 10 nan nan nan nan 14 nan nan nan nan nan nan nan nan nan nan nan nan nan nan nan nan nan nan 29 32 31 30 29 30 29 29 nan nan nan 30 32 31 23 14 11 15 15 19
8 7 6 7 9 11 10 9 9 8 9 10 10 10 12 13 15 12 15 14 14 16 14 12 12 9 10 13 14 15 14 nan nan nan nan nan nan nan nan nan nan nan nan nan nan nan nan nan nan nan nan nan nan nan nan nan nan nan nan nan nan nan nan nan nan nan nan nan nan nan nan nan nan nan nan nan nan nan 31 32 33 28 19 13 14
nan 8 nan 8 9 10 10 10 9 11 11 10 11 13 12 12 13 14 16 15 15 15 16 13 13 12 13 13 17 16 16 15 16 nan nan nan nan nan nan nan nan nan nan nan nan nan nan nan nan nan nan nan nan nan nan nan nan nan nan nan nan nan nan nan nan nan nan nan nan nan nan nan nan nan nan nan nan nan nan nan nan nan 33 30 24
nan nan nan nan 10 11 13 12 12 13 12 13 18 17 16 14 12 14 14 16 17 18 16 15 14 12 13 14 15 14 14 15 nan nan nan nan nan nan nan nan nan nan nan nan nan nan nan nan nan nan nan nan nan nan nan nan nan nan nan nan nan nan nan nan nan nan nan nan nan nan nan nan nan nan nan nan nan nan nan nan nan nan nan nan 28
nan nan nan nan 9 9 nan nan nan 11 11 12 13 18 15 14 16 13 13 16 16 17 18 17 16 15 15 15 14 13 12 nan nan nan nan nan nan nan nan nan nan nan nan nan nan nan nan nan nan nan nan nan nan nan nan nan nan nan nan nan nan nan nan nan nan nan nan nan nan nan nan nan nan nan nan nan nan nan nan nan nan nan nan nan nan
nan nan nan nan nan nan nan nan nan nan nan nan nan 10 11 13 15 15 15 14 15 18 19 18 16 14 15 14 13 13 nan nan nan nan nan nan nan nan nan nan nan nan nan nan nan nan nan nan nan nan nan nan nan nan nan nan nan nan nan nan nan nan nan nan nan nan nan nan nan nan nan nan nan nan nan nan nan nan nan nan nan nan nan nan nan
nan nan nan nan nan nan nan nan nan nan nan nan 8 8 8 10 11 12 12 13 14 16 17 16 16 nan nan nan 14 15 14 14 16 nan nan nan nan nan nan nan nan nan nan nan nan nan nan nan nan nan nan nan nan nan nan nan nan nan nan nan nan nan nan nan nan nan nan nan nan nan nan nan nan nan nan nan nan nan nan nan nan nan nan nan nan
nan nan nan nan 9 8 nan nan nan nan nan nan nan 8 8 9 9 9 9 10 11 13 15 16 15 nan nan nan 15 nan 15 14 14 15 13 nan nan nan nan nan nan nan nan nan nan nan nan nan nan nan nan nan nan nan nan nan nan nan nan nan nan nan nan nan nan nan nan nan nan nan nan nan nan nan nan nan nan nan nan nan nan nan nan nan nan
nan nan nan nan nan nan nan nan nan nan nan nan nan nan 9 9 9 9 8 8 10 12 13 14 14 16 nan nan nan nan 16 14 15 14 12 nan nan nan nan nan nan nan nan nan nan nan nan nan nan nan nan nan nan nan nan nan nan nan nan nan nan nan nan nan nan nan nan nan nan nan nan nan nan nan nan nan nan nan nan nan nan nan nan nan nan
nan nan nan nan nan nan nan nan nan nan nan nan nan nan nan 10 10 10 10 8 11 11 11 13 14 14 nan nan nan nan nan 13 12 nan nan nan nan nan nan nan nan nan nan nan nan nan nan nan nan nan nan nan nan nan nan nan nan nan nan nan nan nan nan nan nan nan nan nan nan nan nan nan nan nan nan nan nan nan nan nan nan nan nan nan nan
nan nan nan nan nan nan nan nan nan nan nan nan nan nan nan nan nan nan nan nan nan nan nan nan nan nan nan nan nan nan nan nan nan nan nan nan nan nan nan nan nan nan nan nan nan nan nan nan nan nan nan nan nan nan nan nan nan nan nan nan nan nan nan nan nan nan nan nan nan nan nan nan nan nan nan nan nan nan nan nan nan nan nan nan nan
nan nan nan nan nan nan nan nan nan nan nan nan nan nan nan nan nan nan nan nan nan nan nan nan nan nan nan nan nan nan nan nan nan nan nan nan nan nan nan nan nan nan nan nan nan nan nan nan nan nan nan nan nan nan nan nan nan nan nan nan nan nan nan nan nan nan nan nan nan nan nan nan nan nan nan nan nan nan nan nan nan nan nan nan nan
nan nan nan nan nan nan nan nan nan nan nan nan nan nan nan nan nan nan nan nan nan nan nan nan nan nan nan nan nan nan nan nan nan nan nan nan nan nan nan nan nan nan nan nan nan nan nan nan nan nan nan nan nan nan nan nan nan nan nan nan nan nan nan nan nan nan nan nan nan nan nan nan nan nan nan nan nan nan nan nan nan nan nan nan nan
nan nan nan nan nan nan nan nan nan nan nan nan nan nan nan nan nan nan nan nan nan nan nan nan nan nan nan nan nan nan nan nan nan nan nan nan nan nan nan nan nan nan nan nan nan nan nan nan nan nan nan nan nan nan nan nan nan nan nan nan nan nan nan nan nan nan nan nan nan nan nan nan nan nan nan nan nan nan nan nan nan nan nan nan nan
nan nan nan nan nan nan nan nan nan nan nan nan nan nan nan nan nan nan nan nan nan nan nan nan nan nan nan nan nan nan nan nan nan nan nan nan nan nan nan nan nan nan nan nan nan nan nan nan nan nan nan nan nan nan nan nan nan nan nan nan nan nan nan nan nan nan nan nan nan nan nan nan nan nan nan nan nan nan nan nan nan nan nan nan nan
nan nan nan nan nan nan nan nan nan nan nan nan nan nan nan nan nan nan nan nan nan nan nan nan nan nan nan nan nan nan nan nan nan nan nan nan nan nan nan nan nan nan nan nan nan nan nan nan nan nan nan nan nan nan nan nan nan nan nan nan nan nan nan nan nan nan nan nan nan nan nan nan nan nan nan nan nan nan nan nan nan nan nan nan nan
nan nan nan nan nan nan nan nan nan nan nan nan nan nan nan nan nan nan nan nan nan nan nan nan nan nan nan nan nan nan nan nan nan nan nan nan nan nan nan nan nan nan nan nan nan nan nan nan nan nan nan nan nan nan nan nan nan nan nan nan nan nan nan nan nan nan nan nan nan nan nan nan nan nan nan nan nan nan nan nan nan nan nan nan nan
nan nan nan nan nan nan nan nan nan nan nan nan nan nan nan nan nan nan nan nan nan nan nan nan nan nan nan nan nan nan nan nan nan nan nan nan nan nan nan nan nan nan nan nan nan nan nan nan nan nan nan nan nan nan nan nan nan nan nan nan nan nan nan nan nan nan nan nan nan nan nan nan nan nan nan nan nan nan nan nan nan nan nan nan nan
nan nan nan nan nan nan nan nan nan nan nan nan nan nan nan nan nan nan nan nan nan nan nan nan nan nan nan nan nan nan nan nan nan nan nan nan nan nan nan nan nan nan nan nan nan nan nan nan nan nan nan nan nan nan nan nan nan nan nan nan nan nan nan nan nan nan nan nan nan nan nan nan nan nan nan nan nan nan nan nan nan nan nan nan nan
nan nan nan nan nan nan nan nan nan nan nan nan nan nan nan nan nan nan nan nan nan nan nan nan nan nan nan nan nan nan nan nan nan nan nan nan nan nan nan nan nan nan nan nan nan nan nan nan nan nan nan nan nan nan nan nan nan nan nan nan nan nan nan nan nan nan nan nan nan nan nan nan nan nan nan nan nan nan nan nan nan nan nan nan nan
nan nan nan nan nan nan nan nan nan nan nan nan nan nan nan nan nan nan nan nan nan nan nan nan nan nan nan nan nan nan nan nan nan nan nan nan nan nan nan nan nan nan nan nan nan nan nan nan nan nan nan nan nan nan nan nan nan nan nan nan nan nan nan nan nan nan nan nan nan nan nan nan nan nan nan nan nan nan nan nan nan nan nan nan nan
nan nan nan nan nan nan nan nan nan nan nan nan nan nan nan nan nan nan nan nan nan nan nan nan nan nan nan nan nan nan nan nan nan nan nan nan nan nan nan nan nan nan nan nan nan nan nan nan nan nan nan nan nan nan nan nan nan nan nan nan nan nan nan nan nan nan nan nan nan nan nan nan nan nan nan nan nan nan nan nan nan nan nan nan nan
nan nan nan nan nan nan nan nan nan nan nan nan nan nan nan nan nan nan nan nan nan nan nan nan nan nan nan nan nan nan nan nan nan nan nan nan nan nan nan nan nan nan nan nan nan nan nan nan nan nan nan nan nan nan nan nan nan nan nan nan nan nan nan nan nan nan nan nan nan nan nan nan nan nan nan nan nan nan nan nan nan nan nan nan nan
nan nan nan nan nan nan nan nan nan nan nan nan nan nan nan nan nan nan nan nan nan nan nan nan nan nan nan nan nan 32 nan nan nan nan nan nan nan nan nan nan nan nan nan nan nan nan nan nan nan nan nan nan nan nan nan nan nan nan nan nan nan nan nan nan nan nan nan nan nan nan nan nan nan nan nan nan nan nan nan nan nan nan nan nan nan
25 26 27 26 nan nan nan nan nan nan nan nan nan nan nan nan nan nan nan nan nan nan nan nan nan nan nan nan nan nan nan nan nan nan nan nan nan nan nan nan nan nan nan nan nan nan nan nan nan nan nan nan nan nan nan nan nan nan nan nan nan nan nan nan nan nan nan nan nan nan nan nan nan nan nan nan nan nan nan nan nan nan nan nan nan
26 nan 28 27 25 nan nan nan nan nan nan nan nan nan nan nan nan nan nan nan nan nan nan nan nan nan nan nan nan nan nan nan nan nan nan nan nan nan nan nan nan nan nan nan nan nan nan nan nan nan nan nan nan nan nan nan nan nan nan nan nan nan nan nan nan nan nan nan nan nan nan nan nan nan nan nan nan nan nan nan nan nan nan nan nan
27 26 26 28 27 27 27 nan nan nan nan nan nan nan nan nan nan nan nan nan nan nan nan nan 37 nan nan nan nan nan nan nan nan nan nan nan nan nan nan nan nan nan nan nan nan nan nan nan nan nan nan nan nan nan nan nan nan nan nan nan nan nan nan nan nan nan nan nan nan nan nan nan nan nan nan nan nan nan nan nan nan nan nan nan nan
28 28 28 28 28 29 28 27 nan nan nan nan nan nan nan nan nan nan 34 34 36 42 nan nan 40 38 nan nan nan nan nan nan nan nan nan nan nan nan nan nan nan nan nan nan nan nan nan nan nan nan nan nan nan nan nan nan nan nan nan nan nan nan nan nan nan nan nan nan nan nan nan nan nan nan nan nan nan nan nan nan nan nan nan nan nan
30 30 31 31 30 30 30 29 28 25 nan nan nan nan nan nan nan nan 36 39 43 41 42 42 42 40 nan 39 41 39 38 38 39 nan nan nan nan nan nan nan nan nan nan nan nan nan nan nan nan nan nan nan nan nan nan nan nan nan nan nan nan nan nan nan nan nan nan nan nan nan nan nan nan nan nan nan nan nan nan nan nan nan nan nan nan
34 35 35 36 34 33 33 32 31 27 26 23 24 25 28 nan nan nan nan 43 46 45 43 44 45 43 41 41 42 41 40 41 nan nan nan nan nan nan nan nan nan nan nan nan nan nan nan nan nan nan nan nan nan nan nan nan nan nan nan nan nan nan nan nan nan nan nan nan nan nan nan nan nan nan nan nan nan nan nan nan nan nan nan nan nan
37 38 38 39 39 39 37 36 35 32 31 27 25 25 26 nan nan nan nan nan nan 49 47 46 46 44 43 42 nan 43 nan nan nan nan nan nan nan nan nan nan nan nan nan nan nan 50 53 nan nan nan nan nan nan nan nan nan nan nan nan nan nan nan nan nan nan nan nan nan nan nan nan nan nan nan nan nan nan nan nan nan nan nan nan nan nan
nan 41 41 40 41 40 41 39 38 36 32 29 26 26 28 33 42 44 nan nan nan nan 48 47 47 45 44 nan 44 nan nan nan nan nan nan nan nan nan nan 50 nan nan 45 nan nan nan nan nan nan nan nan nan nan nan nan nan nan nan nan nan nan nan nan nan nan nan nan nan nan nan nan nan nan nan nan nan nan nan nan nan nan nan nan nan nan
nan nan nan 44 41 41 41 40 37 35 33 31 29 30 34 38 44 46 47 48 49 50 nan 50 nan nan nan 47 44 nan nan nan nan 53 54 52 50 48 nan nan nan nan nan nan nan nan nan nan nan nan nan nan nan nan nan nan nan nan nan nan nan nan nan nan nan nan nan nan nan nan nan nan nan nan nan nan nan nan nan nan nan nan nan nan nan
Wind_Direction
301 311 309 309 317 315 310 305 294 287 285 285 292 300 287 267 253 241 235 232 232 nan 222 222 231 244 253 260 259 255 245 223 225 247 248 249 249 254 258 255 268 271 273 273 274 276 276 275 273 273 271 271 270 266 264 261 nan nan nan nan nan nan nan nan nan nan nan nan nan nan nan nan nan nan nan nan nan nan nan nan nan nan nan nan nan
326 326 315 317 321 322 311 299 296 284 279 280 293 293 285 267 257 247 241 236 232 224 225 223 nan nan 231 237 235 235 246 238 230 238 238 241 245 249 252 249 251 262 273 276 279 279 279 278 278 278 277 277 276 273 268 265 262 260 nan nan nan nan nan nan nan nan nan nan nan nan nan nan nan nan nan nan nan nan nan nan nan nan nan nan nan
334 323 308 305 307 303 289 283 286 291 288 294 291 283 272 267 262 253 240 236 238 233 230 nan nan 246 247 256 266 268 266 238 223 234 244 245 241 239 242 243 244 247 250 274 278 280 281 278 275 278 284 284 281 277 274 269 266 263 262 262 nan nan nan nan nan nan nan nan nan nan nan nan nan nan nan nan nan nan nan nan nan nan nan nan nan
319 299 295 299 298 283 273 288 307 309 307 302 282 267 268 269 270 262 251 246 246 241 241 241 nan nan 250 254 251 245 242 236 225 234 243 242 240 241 242 244 247 249 251 254 267 279 280 280 276 272 279 282 280 277 277 271 268 269 268 267 265 nan nan nan nan nan nan nan nan nan nan nan nan nan nan nan nan nan nan nan nan nan nan nan nan
289 286 282 273 270 267 254 294 328 327 325 314 300 275 266 255 260 259 251 247 246 246 250 245 nan 245 245 241 242 254 253 249 236 225 251 260 260 257 251 253 254 256 254 253 250 254 269 275 274 274 272 276 273 276 275 267 272 277 275 273 271 267 262 nan nan nan nan nan nan nan nan nan nan nan nan nan nan nan nan nan nan nan nan nan nan
285 277 287 284 295 297 248 220 300 303 285 279 274 275 261 256 250 256 248 248 248 252 259 248 242 248 251 253 243 245 247 255 257 241 256 266 271 268 267 267 259 252 250 253 254 254 262 266 273 273 272 273 272 275 272 269 267 278 281 279 276 272 267 264 nan nan nan nan nan nan nan nan nan nan nan nan nan nan nan nan nan nan nan nan nan
292 296 296 303 319 330 338 22 308 293 278 264 257 250 251 251 249 257 253 252 259 261 265 252 251 252 248 245 239 233 235 247 246 241 257 268 270 272 269 253 248 251 247 245 251 255 257 265 267 270 267 266 273 275 279 277 280 272 278 283 282 278 277 273 266 nan nan nan nan nan nan nan nan nan nan nan nan nan nan nan nan nan nan nan nan
294 297 299 313 316 319 315 327 289 291 283 275 261 261 259 263 244 258 269 263 279 267 251 250 249 255 245 240 230 235 247 243 231 258 266 268 269 265 259 259 250 249 258 253 253 253 257 258 259 258 266 270 266 265 267 276 279 278 277 287 286 284 281 280 274 270 nan nan nan nan nan nan nan nan nan nan nan nan nan nan nan nan nan nan nan
300 293 298 302 296 294 292 284 274 289 285 290 277 289 295 288 262 259 282 293 289 267 225 263 257 249 247 244 226 245 276 274 259 278 270 268 271 265 264 266 264 261 263 263 258 256 255 258 256 252 249 252 252 252 254 252 253 256 253 269 287 286 283 280 278 276 272 267 261 nan nan nan nan nan nan nan nan nan nan nan nan nan nan nan nan
303 290 290 287 285 285 278 268 253 261 267 287 305 293 290 296 293 284 284 291 292 267 255 293 278 256 249 237 231 236 261 266 252 250 271 270 268 273 277 285 280 274 267 261 260 261 255 257 261 259 258 258 253 254 251 252 250 252 252 256 272 282 284 281 281 279 280 275 272 269 263 nan nan nan nan nan nan nan nan nan nan nan nan nan nan
302 291 293 295 290 286 286 282 264 274 268 268 277 285 277 280 299 299 283 291 292 261 281 282 271 263 252 222 236 238 236 238 230 200 253 281 277 271 272 278 274 261 258 259 262 259 255 256 259 259 257 253 250 247 249 242 248 252 258 259 268 264 265 271 267 272 271 273 270 269 268 265 266 nan nan nan nan nan nan nan nan nan nan nan nan
294 297 303 304 304 302 299 289 274 269 288 280 278 283 288 288 301 315 308 289 266 273 274 272 268 266 264 248 257 257 244 255 242 236 215 247 251 247 250 258 258 251 247 246 249 250 253 257 261 259 261 257 256 254 249 244 241 241 242 240 246 258 279 271 271 263 259 263 263 265 268 269 270 271 270 266 nan nan nan nan nan nan nan nan nan
298 305 313 314 312 305 304 304 300 298 292 302 322 310 330 320 315 319 320 313 296 298 287 287 nan 264 265 268 262 276 262 257 287 287 260 229 252 262 256 255 246 251 247 249 249 248 250 253 260 261 262 261 257 253 244 239 236 236 235 233 243 247 249 254 263 280 281 265 258 256 262 268 272 273 275 274 271 267 nan nan nan nan nan nan nan
305 303 306 308 309 306 313 328 326 317 321 317 319 327 333 327 313 312 336 322 306 319 330 nan nan 281 279 264 256 252 265 275 262 255 267 276 269 263 257 267 261 257 247 246 255 254 251 255 256 256 256 260 258 247 nan nan nan nan nan nan 232 240 249 253 255 257 263 262 260 253 252 253 263 275 280 280 278 276 275 nan nan nan nan nan nan
307 304 303 299 303 311 313 324 336 324 323 336 326 330 337 335 330 322 316 296 288 297 323 288 nan 286 267 265 270 269 250 248 243 235 257 277 256 265 282 277 272 264 250 230 243 248 249 249 252 252 253 255 256 nan nan nan nan nan nan nan nan 243 250 254 259 262 264 265 264 271 256 248 257 265 271 273 279 281 280 274 273 nan nan nan nan
309 307 307 306 312 315 312 319 336 337 340 341 339 337 334 333 327 308 309 306 301 290 267 271 nan 295 266 274 287 280 275 267 274 265 238 274 301 299 273 273 276 269 262 266 243 243 240 242 249 254 256 254 nan nan nan nan nan nan nan nan nan nan 253 261 258 264 268 269 268 273 277 262 254 254 246 246 262 271 274 275 277 278 nan nan nan
321 321 322 322 324 319 322 325 326 340 332 332 334 334 341 348 328 309 304 305 292 294 279 259 287 281 294 nan nan 269 281 286 285 263 251 245 267 280 282 283 275 263 255 250 243 237 247 247 248 250 252 256 nan nan nan nan nan nan nan nan nan nan nan 250 254 262 267 265 261 260 259 256 252 252 249 247 250 246 246 257 280 283 287 292 nan
313 328 335 335 342 345 336 328 328 327 323 314 306 303 320 335 334 318 308 307 303 293 282 267 263 256 278 283 287 287 290 298 nan nan nan 260 267 265 265 263 266 262 256 258 253 249 249 260 nan nan nan nan nan nan nan nan nan nan nan nan nan nan nan 250 255 263 264 263 262 261 260 255 253 249 246 245 245 256 283 277 253 273 299 298 295
286 304 329 342 348 343 340 343 333 326 319 304 298 297 305 307 312 312 312 306 298 291 302 292 266 259 250 255 261 267 280 281 nan nan nan nan nan nan nan 267 269 269 nan nan nan nan 255 nan nan nan nan nan nan nan nan nan nan nan nan nan nan nan nan nan nan 248 254 257 257 257 257 258 256 nan nan nan 249 250 253 258 274 285 264 269 297
280 298 325 327 325 332 337 332 326 317 312 312 308 292 284 284 298 305 304 309 304 300 298 294 290 271 250 249 254 254 257 nan nan nan nan nan nan nan nan nan nan nan nan nan nan nan nan nan nan nan nan nan nan nan nan nan nan nan nan nan nan nan nan nan nan nan nan nan nan nan nan nan nan nan nan nan nan nan 253 252 250 250 266 280 267
nan 306 nan 308 302 290 289 287 300 312 299 300 293 289 279 284 289 288 296 300 296 293 294 300 285 285 267 255 255 255 253 255 263 nan nan nan nan nan nan nan nan nan nan nan nan nan nan nan nan nan nan nan nan nan nan nan nan nan nan nan nan nan nan nan nan nan nan nan nan nan nan nan nan nan nan nan nan nan nan nan nan nan 258 260 261
nan nan nan nan 282 282 271 269 269 283 284 281 275 275 275 282 277 278 287 288 286 291 292 288 285 285 275 274 266 261 252 248 nan nan nan nan nan nan nan nan nan nan nan nan nan nan nan nan nan nan nan nan nan nan nan nan nan nan nan nan nan nan nan nan nan nan nan nan nan nan nan nan nan nan nan nan nan nan nan nan nan nan nan nan 258
nan nan nan nan 286 283 nan nan nan 274 274 274 274 281 292 289 290 291 288 285 283 282 279 280 281 280 278 277 276 279 276 nan nan nan nan nan nan nan nan nan nan nan nan nan nan nan nan nan nan nan nan nan nan nan nan nan nan nan nan nan nan nan nan nan nan nan nan nan nan nan nan nan nan nan nan nan nan nan nan nan nan nan nan nan nan
nan nan nan nan nan nan nan nan nan nan nan nan nan 275 276 273 282 289 285 283 280 278 279 281 278 278 275 273 271 261 nan nan nan nan nan nan nan nan nan nan nan nan nan nan nan nan nan nan nan nan nan nan nan nan nan nan nan nan nan nan nan nan nan nan nan nan nan nan nan nan nan nan nan nan nan nan nan nan nan nan nan nan nan nan nan
nan nan nan nan nan nan nan nan nan nan nan nan 278 278 274 273 279 283 288 286 287 284 282 276 274 nan nan nan 267 264 260 257 259 nan nan nan nan nan nan nan nan nan nan nan nan nan nan nan nan nan nan nan nan nan nan nan nan nan nan nan nan nan nan nan nan nan nan nan nan nan nan nan nan nan nan nan nan nan nan nan nan nan nan nan nan
nan nan nan nan 302 316 nan nan nan nan nan nan nan 271 272 280 285 289 291 291 285 280 277 272 265 nan nan nan 258 nan 257 256 261 263 263 nan nan nan nan nan nan nan nan nan nan nan nan nan nan nan nan nan nan nan nan nan nan nan nan nan nan nan nan nan nan nan nan nan nan nan nan nan nan nan nan nan nan nan nan nan nan nan nan nan nan
nan nan nan nan nan nan nan nan nan nan nan nan nan nan 267 273 282 288 283 279 274 268 268 268 263 260 nan nan nan nan 252 251 253 253 256 nan nan nan nan nan nan nan nan nan nan nan nan nan nan nan nan nan nan nan nan nan nan nan nan nan nan nan nan nan nan nan nan nan nan nan nan nan nan nan nan nan nan nan nan nan nan nan nan nan nan
nan nan nan nan nan nan nan nan nan nan nan nan nan nan nan 271 272 280 286 281 278 269 263 259 256 254 nan nan nan nan nan 253 252 nan nan nan nan nan nan nan nan nan nan nan nan nan nan nan nan nan nan nan nan nan nan nan nan nan nan nan nan nan nan nan nan nan nan nan nan nan nan nan nan nan nan nan nan nan nan nan nan nan nan nan nan
nan nan nan nan nan nan nan nan nan nan nan nan nan nan nan nan nan nan nan nan nan nan nan nan nan nan nan nan nan nan nan nan nan nan nan nan nan nan nan nan nan nan nan nan nan nan nan nan nan nan nan nan nan nan nan nan nan nan nan nan nan nan nan nan nan nan nan nan nan nan nan nan nan nan nan nan nan nan nan nan nan nan nan nan nan
nan nan nan nan nan nan nan nan nan nan nan nan nan nan nan nan nan nan nan nan nan nan nan nan nan nan nan nan nan nan nan nan nan nan nan nan nan nan nan nan nan nan nan nan nan nan nan nan nan nan nan nan nan nan nan nan nan nan nan nan nan nan nan nan nan nan nan nan nan nan nan nan nan nan nan nan nan nan nan nan nan nan nan nan nan
nan nan nan nan nan nan nan nan nan nan nan nan nan nan nan nan nan nan nan nan nan nan nan nan nan nan nan nan nan nan nan nan nan nan nan nan nan nan nan nan nan nan nan nan nan nan nan nan nan nan nan nan nan nan nan nan nan nan nan nan nan nan nan nan nan nan nan nan nan nan nan nan nan nan nan nan nan nan nan nan nan nan nan nan nan
nan nan nan nan nan nan nan nan nan nan nan nan nan nan nan nan nan nan nan nan nan nan nan nan nan nan nan nan nan nan nan nan nan nan nan nan nan nan nan nan nan nan nan nan nan nan nan nan nan nan nan nan nan nan nan nan nan nan nan nan nan nan nan nan nan nan nan nan nan nan nan nan nan nan nan nan nan nan nan nan nan nan nan nan nan
nan nan nan nan nan nan nan nan nan nan nan nan nan nan nan nan nan nan nan nan nan nan nan nan nan nan nan nan nan nan nan nan nan nan nan nan nan nan nan nan nan nan nan nan nan nan nan nan nan nan nan nan nan nan nan nan nan nan nan nan nan nan nan nan nan nan nan nan nan nan nan nan nan nan nan nan nan nan nan nan nan nan nan nan nan
nan nan nan nan nan nan nan nan nan nan nan nan nan nan nan nan nan nan nan nan nan nan nan nan nan nan nan nan nan nan nan nan nan nan nan nan nan nan nan nan nan nan nan nan nan nan nan nan nan nan nan nan nan nan nan nan nan nan nan nan nan nan nan nan nan nan nan nan nan nan nan nan nan nan nan nan nan nan nan nan nan nan nan nan nan
nan nan nan nan nan nan nan nan nan nan nan nan nan nan nan nan nan nan nan nan nan nan nan nan nan nan nan nan nan nan nan nan nan nan nan nan nan nan nan nan nan nan nan nan nan nan nan nan nan nan nan nan nan nan nan nan nan nan nan nan nan nan nan nan nan nan nan nan nan nan nan nan nan nan nan nan nan nan nan nan nan nan nan nan nan
nan nan nan nan nan nan nan nan nan nan nan nan nan nan nan nan nan nan nan nan nan nan nan nan nan nan nan nan nan nan nan nan nan nan nan nan nan nan nan nan nan nan nan nan nan nan nan nan nan nan nan nan nan nan nan nan nan nan nan nan nan nan nan nan nan nan nan nan nan nan nan nan nan nan nan nan nan nan nan nan nan nan nan nan nan
nan nan nan nan nan nan nan nan nan nan nan nan nan nan nan nan nan nan nan nan nan nan nan nan nan nan nan nan nan nan nan nan nan nan nan nan nan nan nan nan nan nan nan nan nan nan nan nan nan nan nan nan nan nan nan nan nan nan nan nan nan nan nan nan nan nan nan nan nan nan nan nan nan nan nan nan nan nan nan nan nan nan nan nan nan
nan nan nan nan nan nan nan nan nan nan nan nan nan nan nan nan nan nan nan nan nan nan nan nan nan nan nan nan nan nan nan nan nan nan nan nan nan nan nan nan nan nan nan nan nan nan nan nan nan nan nan nan nan nan nan nan nan nan nan nan nan nan nan nan nan nan nan nan nan nan nan nan nan nan nan nan nan nan nan nan nan nan nan nan nan
nan nan nan nan nan nan nan nan nan nan nan nan nan nan nan nan nan nan nan nan nan nan nan nan nan nan nan nan nan nan nan nan nan nan nan nan nan nan nan nan nan nan nan nan nan nan nan nan nan nan nan nan nan nan nan nan nan nan nan nan nan nan nan nan nan nan nan nan nan nan nan nan nan nan nan nan nan nan nan nan nan nan nan nan nan
nan nan nan nan nan nan nan nan nan nan nan nan nan nan nan nan nan nan nan nan nan nan nan nan nan nan nan nan nan nan nan nan nan nan nan nan nan nan nan nan nan nan nan nan nan nan nan nan nan nan nan nan nan nan nan nan nan nan nan nan nan nan nan nan nan nan nan nan nan nan nan nan nan nan nan nan nan nan nan nan nan nan nan nan nan
nan nan nan nan nan nan nan nan nan nan nan nan nan nan nan nan nan nan nan nan nan nan nan nan nan nan nan nan nan nan nan nan nan nan nan nan nan nan nan nan nan nan nan nan nan nan nan nan nan nan nan nan nan nan nan nan nan nan nan nan nan nan nan nan nan nan nan nan nan nan nan nan nan nan nan nan nan nan nan nan nan nan nan nan nan
nan nan nan nan nan nan nan nan nan nan nan nan nan nan nan nan nan nan nan nan nan nan nan nan nan nan nan nan nan 299 nan nan nan nan nan nan nan nan nan nan nan nan nan nan nan nan nan nan nan nan nan nan nan nan nan nan nan nan nan nan nan nan nan nan nan nan nan nan nan nan nan nan nan nan nan nan nan nan nan nan nan nan nan nan nan
239 240 244 244 nan nan nan nan nan nan nan nan nan nan nan nan nan nan nan nan nan nan nan nan nan nan nan nan nan nan nan nan nan nan nan nan nan nan nan nan nan nan nan nan nan nan nan nan nan nan nan nan nan nan nan nan nan nan nan nan nan nan nan nan nan nan nan nan nan nan nan nan nan nan nan nan nan nan nan nan nan nan nan nan nan
235 nan 242 247 247 nan nan nan nan nan nan nan nan nan nan nan nan nan nan nan nan nan nan nan nan nan nan nan nan nan nan nan nan nan nan nan nan nan nan nan nan nan nan nan nan nan nan nan nan nan nan nan nan nan nan nan nan nan nan nan nan nan nan nan nan nan nan nan nan nan nan nan nan nan nan nan nan nan nan nan nan nan nan nan nan
246 244 246 248 249 251 254 nan nan nan nan nan nan nan nan nan nan nan nan nan nan nan nan nan 290 nan nan nan nan nan nan nan nan nan nan nan nan nan nan nan nan nan nan nan nan nan nan nan nan nan nan nan nan nan nan nan nan nan nan nan nan nan nan nan nan nan nan nan nan nan nan nan nan nan nan nan nan nan nan nan nan nan nan nan nan
254 252 251 251 252 254 257 259 nan nan nan nan nan nan nan nan nan nan 280 279 283 287 nan nan 293 293 nan nan nan nan nan nan nan nan nan nan nan nan nan nan nan nan nan nan nan nan nan nan nan nan nan nan nan nan nan nan nan nan nan nan nan nan nan nan nan nan nan nan nan nan nan nan nan nan nan nan nan nan nan nan nan nan nan nan nan
261 258 258 258 255 256 258 260 262 263 nan nan nan nan nan nan nan nan 282 282 285 288 291 293 292 294 nan 291 292 293 289 287 290 nan nan nan nan nan nan nan nan nan nan nan nan nan nan nan nan nan nan nan nan nan nan nan nan nan nan nan nan nan nan nan nan nan nan nan nan nan nan nan nan nan nan nan nan nan nan nan nan nan nan nan nan
265 265 262 262 261 261 261 262 264 264 265 270 275 279 283 nan nan nan nan 287 288 289 289 288 290 291 291 291 291 290 288 289 nan nan nan nan nan nan nan nan nan nan nan nan nan nan nan nan nan nan nan nan nan nan nan nan nan nan nan nan nan nan nan nan nan nan nan nan nan nan nan nan nan nan nan nan nan nan nan nan nan nan nan nan nan
261 265 265 264 264 266 265 266 267 265 263 266 270 271 274 nan nan nan nan nan nan 288 290 289 288 288 288 288 nan 286 nan nan nan nan nan nan nan nan nan nan nan nan nan nan nan 269 274 nan nan nan nan nan nan nan nan nan nan nan nan nan nan nan nan nan nan nan nan nan nan nan nan nan nan nan nan nan nan nan nan nan nan nan nan nan nan
nan 262 261 259 259 262 266 267 267 266 265 264 270 273 278 283 285 286 nan nan nan nan 289 289 288 288 289 nan 285 nan nan nan nan nan nan nan nan nan nan 285 nan nan 279 nan nan nan nan nan nan nan nan nan nan nan nan nan nan nan nan nan nan nan nan nan nan nan nan nan nan nan nan nan nan nan nan nan nan nan nan nan nan nan nan nan nan
nan nan nan 262 258 260 266 267 269 268 267 270 275 280 285 287 288 286 287 287 287 287 nan 288 nan nan nan 290 293 nan nan nan nan 290 292 289 285 285 nan nan nan nan nan nan nan nan nan nan nan nan nan nan nan nan nan nan nan nan nan nan nan nan nan nan nan nan nan nan nan nan nan nan nan nan nan nan nan nan nan nan nan nan nan nan nan